[[{"header":{"parameterUnit":"m.s-1","parameterCategory":1,"la1":30.2991,"la2":30.254,"lo1":-89.0895,"lo2":-89.0444,"dy":0.0017,"dx":0.0017,"nx":28,"ny":28,"refTime":"2025-04-01T03:00:00:Z","depth":0,"parameterNumber":2,"parameterNumberName":"U-component_of_WINDS"},"data":[0,0,0,0,0,0,0,0,0,0,0,0,0,0,0,0,0,0,0,0,0,0,0,0,0,0,0,0,0,0,0,0,0,0,0,0,0,0,0,0,0,0,0,0,0,0,0,0,0,0,0,0,0,0,0,0,0,0,2.8279,2.828,0,2.8352,2.8353,2.8354,2.8362,2.8361,2.836,2.836,2.8438,2.844,2.8443,0,0,0,0,0,0,0,0,0,0,0,0,0,2.8151,2.8153,2.8279,2.828,2.8281,2.8352,2.8353,2.8354,2.8362,2.8361,2.836,2.8359,2.8437,2.844,2.8443,0,0,0,0,0,0,0,0,0,0,0,0,0,2.8214,2.8154,2.8279,2.8293,2.8295,2.8352,2.8353,2.8354,2.8362,2.8361,2.836,2.8359,2.8436,2.844,2.8444,2.8491,0,0,2.8456,2.8458,0,0,0,0,0,0,0,0,2.821,2.8218,2.829,2.8292,2.8295,2.8347,2.8336,2.84,2.8362,2.8337,2.836,2.8358,2.8408,2.8415,2.8431,2.8495,2.8498,2.8457,2.8459,2.8461,2.8462,0,0,0,0,0,0,0,2.8206,2.8215,2.8308,2.8291,2.8294,2.8298,2.8305,2.8349,2.8378,2.8339,2.834,2.8348,2.8409,2.8427,2.8433,2.85,2.8457,2.846,2.8463,2.8464,2.861,2.8612,0,0,0,0,0,0,2.8198,2.8212,2.8306,2.831,2.8249,2.8301,2.8309,2.8331,2.8378,2.8384,2.8349,2.8348,2.842,2.8428,2.8436,2.8496,2.8461,2.8465,2.8467,2.8609,2.8611,2.8612,0,0,0,0,0,0,2.8195,2.8206,2.8303,2.8261,2.8274,2.8304,2.8329,2.8333,2.835,2.8385,2.8391,2.8361,2.842,2.843,2.8478,2.8499,2.8467,2.847,2.8607,2.8609,2.8611,2.8617,0,0,0,0,0,0,2.8192,2.8205,2.8222,2.8261,2.8276,2.8342,2.833,2.8335,2.8357,2.8357,2.8398,2.8404,2.842,2.8472,2.8482,2.8504,2.8474,2.8605,2.8608,2.8611,2.8615,2.8619,2.8622,0,0,0,0,0,2.8187,2.8221,2.8223,2.8234,2.8297,2.8343,2.8352,2.8368,2.8359,2.8377,2.84,2.8402,2.8495,2.8477,2.8488,2.8512,2.8604,2.8607,2.861,2.8613,2.8618,2.8622,0,0,0,0,0,0,2.8184,2.8226,2.8229,2.8276,2.8306,2.8344,2.8368,2.8373,2.8406,2.8405,2.8425,2.8434,2.8482,2.8502,2.8481,2.8562,2.8549,2.8555,2.8547,2.8552,2.8556,2.855,2.8477,0,0,0,0,0,2.8189,2.8221,2.8257,2.8295,2.831,2.8337,2.8357,2.8368,2.84,2.8413,2.8439,2.8471,2.8508,2.8531,2.8566,2.8618,2.8629,2.8641,2.8644,2.8647,2.8652,2.8683,2.8689,2.8622,2.8622,2.8622,0,0,2.8199,2.8226,2.8245,2.8295,2.832,2.8355,2.8347,2.8383,2.841,2.8418,2.8465,2.8486,2.8524,2.8575,2.8598,2.8593,2.8673,2.8651,2.8653,2.8656,2.8687,2.8693,2.8699,2.8624,2.8624,2.8624,0,0,2.8235,2.8258,2.8294,2.8319,2.8356,2.8374,2.8382,2.8421,2.8435,2.8482,2.849,2.8523,2.8585,2.8612,2.8634,2.8684,2.8689,2.8696,2.8715,2.8745,2.875,2.8755,2.8774,2.8781,2.87,2.87,2.87,0,2.8243,2.8294,2.8311,2.8348,2.8371,2.8381,2.8418,2.8442,2.8489,2.8506,2.8499,2.8579,2.8604,2.8663,2.8675,2.8692,2.8704,2.869,2.8748,2.8753,2.8758,2.8776,2.8783,2.8701,2.8701,2.8701,2.8701,0,2.8303,2.8339,2.8363,2.8409,2.8435,2.8472,2.8497,2.8521,2.8531,2.855,2.86,2.8632,2.8675,2.869,2.8699,2.8751,2.8746,2.8743,2.873,2.8764,2.8782,2.8789,2.8702,2.8702,2.8701,2.8701,0,0,2.8336,2.8393,2.8402,2.8424,2.8467,2.8496,2.8535,2.8577,2.8598,2.8631,2.8666,2.8719,2.8718,2.8743,2.8756,2.8782,2.8823,2.8777,2.8778,2.8785,2.8883,2.8885,2.8893,2.8826,2.8827,2.8829,2.888,0,2.8378,2.8446,2.8464,2.8523,2.8558,2.8569,2.8604,2.8635,2.8655,2.8689,2.8712,2.875,2.8744,2.876,2.8787,2.8812,2.8843,2.8808,2.8859,2.8861,2.8849,2.8902,2.8904,2.8951,2.8887,2.8889,2.889,0,2.8434,2.8469,2.8531,2.8572,2.8588,2.8618,2.8659,2.8691,2.8728,2.8741,2.8771,2.8782,2.8825,2.8811,2.8872,2.8848,2.8871,2.8887,2.8889,2.8894,2.8877,2.8909,2.8966,2.8973,2.8901,2.89,2.8899,0,2.8454,2.8516,2.8562,2.858,2.8629,2.8651,2.8673,2.8709,2.8734,2.8771,2.8787,2.8829,2.8852,2.8885,2.8908,2.8895,2.8968,2.8955,2.8982,2.8981,2.8996,2.8994,2.9057,2.901,2.901,2.901,2.901,0,2.8498,2.8536,2.8572,2.86,2.8643,2.8666,2.8709,2.8731,2.8764,2.8798,2.8811,2.8843,2.8872,2.8908,2.8927,2.8976,2.8986,2.8999,2.9004,2.8998,2.8996,2.9013,2.901,2.9012,2.9011,2.9011,2.9011,0,2.8526,2.8551,2.8602,2.8646,2.8658,2.8688,2.8726,2.8755,2.8777,2.882,2.8831,2.8866,2.891,2.8937,2.8992,2.9005,2.906,2.9063,2.9047,2.9049,2.9074,2.9071,2.9149,2.9161,2.9106,2.9106,2.9107,0,2.8552,2.8582,2.8629,2.8653,2.8675,2.8712,2.8739,2.8763,2.879,2.8836,2.886,2.8905,2.8942,2.9013,2.9043,2.9087,2.9092,2.9116,2.9098,2.9092,2.9093,2.9091,2.9095,2.9119,2.9119,2.912,2.912,0,2.8597,2.8609,2.8645,2.8687,2.8718,2.8752,2.8786,2.8805,2.8836,2.8866,2.8911,2.894,2.8998,2.9043,2.909,2.9115,2.9123,2.9126,2.9134,2.9129,2.9118,2.9125,2.9055,2.9124,2.9123,2.9123,2.9123,2.9123,2.8625,2.8653,2.8691,2.8732,2.8761,2.8793,2.8823,2.885,2.8887,2.8936,2.8949,2.8997,2.9037,2.91,2.9126,2.9165,2.9161,2.9173,2.9177,2.9179,2.918,2.9112,2.9174,2.9174,2.9174,2.9173,2.9173,0,2.8671,2.8697,2.8734,2.8783,2.8816,2.8821,2.886,2.8888,2.893,2.8966,2.9003,2.9056,2.9101,2.9136,2.9183,2.9207,2.9213,2.9219,2.9217,2.9223,2.918,2.9168,2.9214,2.9214,2.9214,2.9214,2.9214,2.9214,2.8698,2.8746,2.8763,2.8826,2.8853,2.8899,2.8921,2.8952,2.8981,2.904,2.9078,2.91,2.9137,2.9187,2.9229,2.9239,2.9255,2.9261,2.9271,2.923,2.9226,2.9222,2.9211,2.9264,2.9264,2.9311,2.9311,2.9311]},{"header":{"parameterUnit":"m.s-1","parameterCategory":1,"la1":30.2991,"la2":30.254,"lo1":-89.0895,"lo2":-89.0444,"dy":0.0017,"dx":0.0017,"nx":28,"ny":28,"refTime":"2025-04-01T03:00:00:Z","depth":0,"parameterNumber":3,"parameterNumberName":"V-component_of_WINDS"},"data":[0,0,0,0,0,0,0,0,0,0,0,0,0,0,0,0,0,0,0,0,0,0,0,0,0,0,0,0,0,0,0,0,0,0,0,0,0,0,0,0,0,0,0,0,0,0,0,0,0,0,0,0,0,0,0,0,0,0,3.7262,3.7263,0,3.7395,3.7396,3.7398,3.7462,3.7462,3.7462,3.7462,3.759,3.7593,3.7596,0,0,0,0,0,0,0,0,0,0,0,0,0,3.7054,3.7057,3.7261,3.7263,3.7265,3.7395,3.7397,3.7398,3.7462,3.7462,3.7462,3.7462,3.7589,3.7593,3.7597,0,0,0,0,0,0,0,0,0,0,0,0,0,3.7161,3.7059,3.7261,3.7312,3.7318,3.7394,3.7397,3.7399,3.7462,3.7462,3.7462,3.7462,3.7587,3.7592,3.7597,3.763,0,0,3.7613,3.7615,0,0,0,0,0,0,0,0,3.7155,3.7169,3.7303,3.7309,3.7316,3.7412,3.737,3.7476,3.7462,3.7407,3.7462,3.7461,3.753,3.754,3.7565,3.7636,3.7642,3.7614,3.7617,3.7619,3.762,0,0,0,0,0,0,0,3.7147,3.7163,3.7314,3.7305,3.7313,3.7326,3.7341,3.7391,3.7467,3.7412,3.7417,3.7432,3.7533,3.756,3.7568,3.7643,3.7613,3.7618,3.7621,3.7623,3.7749,3.7749,0,0,0,0,0,0,3.7133,3.7157,3.731,3.7318,3.7234,3.733,3.7347,3.7381,3.7467,3.748,3.7432,3.7435,3.7551,3.7562,3.7573,3.7618,3.7619,3.7624,3.7627,3.7749,3.7749,3.7749,0,0,0,0,0,0,3.7128,3.7146,3.7304,3.7239,3.726,3.7334,3.7371,3.7383,3.741,3.7482,3.7495,3.7445,3.7551,3.7566,3.7616,3.7623,3.7626,3.7631,3.7749,3.7749,3.7749,3.7708,0,0,0,0,0,0,3.7122,3.7144,3.7159,3.7239,3.7263,3.7348,3.7372,3.7386,3.742,3.7424,3.7498,3.751,3.7552,3.7608,3.7621,3.763,3.7635,3.7748,3.7749,3.7749,3.7709,3.7706,3.7705,0,0,0,0,0,3.7114,3.714,3.7159,3.7177,3.7284,3.7348,3.7362,3.7412,3.742,3.7435,3.7481,3.7508,3.762,3.7613,3.7628,3.7639,3.7748,3.7749,3.7749,3.771,3.7707,3.7705,0,0,0,0,0,0,3.7055,3.7151,3.7174,3.7226,3.7279,3.7359,3.7379,3.7408,3.7457,3.7459,3.7517,3.7533,3.7578,3.7613,3.7603,3.7675,3.7686,3.769,3.7651,3.7649,3.7647,3.7638,3.7639,0,0,0,0,0,3.7049,3.7096,3.7176,3.7214,3.724,3.7304,3.7334,3.7369,3.7424,3.7446,3.7496,3.7547,3.7594,3.7623,3.767,3.7714,3.773,3.7729,3.7726,3.7724,3.7727,3.7753,3.7753,3.7751,3.7751,3.7751,0,0,3.7035,3.7093,3.7119,3.7204,3.7249,3.7294,3.7323,3.7368,3.7402,3.7452,3.7504,3.7542,3.7602,3.765,3.7673,3.7681,3.7731,3.7725,3.7723,3.7727,3.7754,3.7754,3.7754,3.7752,3.7752,3.7751,0,0,3.7034,3.7082,3.7121,3.7166,3.7235,3.7278,3.7287,3.7363,3.7391,3.7445,3.7484,3.7522,3.7602,3.7644,3.7675,3.7691,3.7717,3.7704,3.7693,3.7718,3.7718,3.7719,3.7725,3.7726,3.7706,3.7706,3.7706,0,3.7007,3.708,3.7136,3.7181,3.7217,3.7267,3.7306,3.7345,3.7424,3.7447,3.7455,3.7557,3.76,3.7659,3.7663,3.7686,3.7698,3.7696,3.7714,3.7715,3.7716,3.7723,3.7725,3.7704,3.7704,3.7704,3.7705,0,3.7044,3.7093,3.7115,3.7194,3.7232,3.7273,3.7334,3.7365,3.7396,3.7438,3.7491,3.7546,3.7606,3.7622,3.7651,3.7685,3.7687,3.7704,3.7716,3.7714,3.7721,3.7724,3.7701,3.7702,3.7702,3.7703,0,0,3.7009,3.712,3.7127,3.7164,3.7244,3.7282,3.7324,3.7386,3.7412,3.7464,3.75,3.7567,3.7584,3.7619,3.7654,3.7675,3.7685,3.769,3.7692,3.7687,3.7725,3.7713,3.7715,3.7703,3.7703,3.7704,3.772,0,3.7019,3.7102,3.7154,3.7214,3.726,3.7309,3.7346,3.7397,3.7437,3.748,3.7523,3.757,3.7587,3.761,3.7633,3.7679,3.7693,3.7678,3.7736,3.7737,3.772,3.7718,3.7706,3.7719,3.7723,3.7724,3.7724,0,3.7042,3.7097,3.7163,3.7239,3.726,3.7293,3.7354,3.7395,3.7454,3.7481,3.7522,3.7557,3.7602,3.7611,3.7673,3.7661,3.7688,3.7713,3.7715,3.7723,3.7731,3.7727,3.7724,3.7726,3.7729,3.7728,3.7728,0,3.7011,3.7101,3.7153,3.7183,3.7272,3.7294,3.7332,3.7391,3.7425,3.7477,3.75,3.7555,3.7585,3.7626,3.7674,3.7676,3.7732,3.7744,3.7755,3.7753,3.7765,3.7763,3.7767,3.778,3.778,3.778,3.778,0,3.7017,3.7056,3.7141,3.7172,3.7216,3.7275,3.7316,3.7357,3.741,3.7449,3.7493,3.7528,3.759,3.7632,3.767,3.7716,3.7728,3.7751,3.7761,3.7748,3.7745,3.7766,3.7767,3.778,3.778,3.778,3.778,0,3.699,3.7048,3.7108,3.7189,3.7211,3.724,3.7308,3.7339,3.7382,3.7431,3.7445,3.7511,3.7563,3.7616,3.7685,3.7711,3.7756,3.7768,3.7737,3.7742,3.7751,3.7749,3.7768,3.7774,3.7782,3.7782,3.7782,0,3.6991,3.7022,3.7108,3.7139,3.7177,3.7225,3.7261,3.7319,3.7354,3.7424,3.7447,3.7503,3.7551,3.7631,3.7684,3.7737,3.7752,3.7755,3.776,3.7746,3.7753,3.7751,3.7754,3.7752,3.7752,3.7752,3.7752,0,3.6986,3.7014,3.7066,3.7128,3.717,3.722,3.7272,3.7294,3.7362,3.7398,3.7454,3.7491,3.7564,3.7618,3.7678,3.7714,3.7744,3.775,3.7755,3.7743,3.7723,3.7735,3.7732,3.7749,3.7749,3.7749,3.775,3.775,3.6974,3.7004,3.707,3.7126,3.7172,3.722,3.7254,3.7302,3.7351,3.7417,3.7447,3.7502,3.756,3.7644,3.768,3.7722,3.7731,3.7738,3.774,3.7741,3.7739,3.7716,3.7733,3.7733,3.7733,3.7734,3.7734,0,3.6972,3.7017,3.7068,3.7142,3.7185,3.7212,3.7271,3.7305,3.7355,3.7408,3.7455,3.7519,3.7572,3.763,3.7686,3.7709,3.7724,3.7722,3.7721,3.7729,3.7728,3.7718,3.7709,3.7709,3.7709,3.7709,3.7709,3.7709,3.6976,3.703,3.7066,3.7142,3.7187,3.7245,3.7276,3.732,3.7363,3.7433,3.7479,3.7517,3.7571,3.7632,3.7682,3.7697,3.7716,3.771,3.7729,3.7727,3.7729,3.7731,3.7722,3.7713,3.7713,3.7727,3.7727,3.7727]}]]